Location: B?ogocice
(50.2413°N, 20.2361°E)
Time: 13:30:11
(UTC+00:00)

BREEZE-M R/B - Pass Details

Date: 15 June 2024
Orbit: 1070 x 14787 km, 50.7° (Epoch: 14 July)

Event Time Altitude Azimuth Distance (km) Brightness Sun altitude
Rises 01:20:20 0° 289° (WNW) 6,259 8.0 -8.3°
Reaches altitude 10° 01:25:04 10° 287° (WNW) 4,280 7.1 -7.8°
Maximum altitude 01:33:35 68° 206° (SSW) 1,232 4.4 -7.0°
Drops below altitude 10° 01:39:20 10° 124° (SE) 2,952 6.6 -6.4°
Sets 01:41:56 0° 122° (ESE) 4,114 7.4 -6.1°
